Theta_e
354 354 352 351 347 347 355 358 353 354 356 351 348 351 354 354 355 348 347 347 346 340 338 346 346 341 335 333 335 338 338 339 337 333 332 332 333 332 331 332 336 327 324 328 333 332 339 339 341
354 355 352 345 346 349 355 351 356 356 353 351 351 352 352 355 352 349 347 347 345 334 338 344 339 332 330 329 330 331 332 334 332 332 332 332 329 328 330 339 335 329 327 332 333 333 332 335 338
355 354 346 344 346 350 358 355 355 355 354 351 351 352 352 351 352 346 346 346 344 331 328 329 328 329 329 328 329 330 332 334 335 331 328 326 327 330 331 335 332 331 333 332 333 335 334 332 335
349 350 344 350 358 356 358 356 352 352 354 351 351 352 350 352 346 345 346 346 342 329 326 328 328 329 329 328 331 334 337 334 328 326 326 329 329 329 329 331 332 333 333 335 335 334 335 336 336
346 349 347 350 353 353 353 349 352 353 351 351 351 352 349 349 347 344 345 345 342 328 327 329 329 330 329 330 335 335 329 327 326 326 328 327 327 326 328 332 338 332 335 337 338 336 336 336 335
346 347 352 354 357 354 352 352 353 353 353 352 351 350 350 351 349 342 344 344 342 327 326 329 330 331 335 345 332 330 329 330 329 328 327 326 326 327 326 326 327 331 334 337 338 338 336 335 336
346 346 353 355 357 358 356 353 351 346 351 351 351 350 350 351 350 344 341 345 341 328 325 329 329 331 332 338 335 332 331 331 330 330 329 328 329 328 328 328 329 334 336 337 338 339 339 338 336
345 346 354 353 353 356 353 352 350 349 350 351 351 350 350 351 349 346 340 342 335 328 325 327 328 330 330 329 328 329 333 333 332 333 332 335 338 338 336 335 331 334 334 336 336 338 340 340 336
346 342 350 351 356 354 351 352 353 350 349 351 351 351 350 351 348 342 338 342 332 329 325 325 327 327 328 327 327 327 336 333 341 342 340 338 339 339 338 337 333 334 334 331 334 334 337 340 339
340 342 344 345 348 350 351 351 353 347 348 350 350 350 351 351 349 342 335 335 332 328 325 324 324 325 326 325 327 328 337 340 338 341 339 338 339 338 336 335 338 334 336 332 335 340 337 338 337
341 344 343 347 346 350 351 349 348 347 348 350 350 350 351 350 349 343 336 333 332 329 327 325 324 324 324 327 330 334 343 340 339 340 338 334 336 335 335 335 337 337 335 333 340 342 340 341 340
344 341 342 344 348 349 349 348 347 347 345 345 351 351 351 350 349 342 332 331 333 330 327 325 325 326 329 330 334 339 338 336 335 336 338 336 337 338 339 339 339 337 335 336 340 341 343 344 342
333 338 342 342 348 348 348 348 347 344 345 346 351 350 350 350 349 343 333 330 332 345 326 326 327 331 333 335 337 336 336 334 333 333 336 339 341 343 342 340 339 336 335 341 343 342 342 341 343
334 334 337 342 348 348 348 348 348 346 350 351 351 350 350 350 350 348 343 343 346 346 342 329 330 334 336 337 337 336 338 335 341 341 339 341 344 344 343 340 338 336 336 343 343 342 343 342 343
331 334 334 336 344 347 349 350 349 347 350 352 352 352 351 351 350 350 349 349 349 347 348 336 335 335 337 338 337 338 338 344 346 344 343 345 346 345 343 341 340 335 338 342 343 343 343 343 344
333 333 334 334 345 349 347 349 346 349 350 352 353 352 352 352 351 350 350 349 350 347 349 346 341 339 339 339 339 340 342 346 346 346 345 345 346 344 343 342 341 340 341 343 344 344 344 344 344
330 334 334 333 337 349 341 341 345 348 351 352 351 351 351 352 351 351 350 350 350 348 349 346 343 342 341 341 342 343 345 345 347 348 347 344 345 345 344 341 340 340 340 343 344 344 344 344 343
333 332 332 333 336 345 342 342 348 348 352 352 352 351 350 350 351 350 349 349 350 349 349 348 340 345 345 345 345 346 345 347 348 347 347 344 344 345 344 342 340 339 340 344 343 344 343 341 342
330 332 332 333 339 341 343 346 348 353 350 350 352 351 352 351 350 350 349 349 349 349 348 348 340 344 346 345 345 344 346 347 347 347 345 343 343 345 346 344 341 340 339 343 342 344 341 340 341
330 331 331 334 335 343 348 351 353 353 350 347 349 349 349 348 348 349 350 348 347 347 346 347 341 343 345 346 346 345 346 348 348 347 345 344 345 345 345 342 341 340 339 340 340 343 341 340 340
328 330 330 333 339 345 347 348 346 351 353 353 349 352 352 350 349 348 348 347 345 343 347 347 346 345 343 344 346 347 347 348 347 345 345 345 343 342 342 342 342 340 338 334 335 340 341 340 342
328 329 331 331 334 337 341 347 344 344 350 353 353 353 350 348 349 348 345 344 345 343 345 346 346 347 346 346 347 347 347 348 347 346 345 344 343 342 342 342 343 341 340 340 337 336 339 342 343
328 329 328 331 332 341 342 344 342 341 351 350 350 350 348 347 347 347 345 344 342 342 344 343 344 347 346 347 347 347 348 348 347 345 345 344 343 344 344 343 342 343 341 341 341 340 338 342 342
327 327 323 322 326 335 338 340 339 343 346 348 347 347 346 345 346 345 344 342 341 341 343 346 346 345 346 346 347 348 348 347 345 344 346 346 345 345 345 344 343 343 341 343 341 342 341 340 341
325 322 324 328 326 329 335 338 335 334 337 343 347 346 344 343 344 344 343 342 341 341 340 343 345 346 347 347 347 346 345 347 345 345 346 348 348 347 346 345 345 345 345 342 342 342 342 341 341
322 321 324 329 328 330 337 340 336 335 337 340 346 345 342 343 344 343 341 340 341 342 342 344 345 347 348 347 346 346 346 345 344 346 347 348 348 350 347 346 346 346 346 345 342 342 341 342 342
323 323 321 324 325 334 334 334 333 336 336 337 341 346 344 342 344 344 344 343 342 342 341 343 345 346 347 345 346 346 345 347 349 349 348 347 347 349 347 347 347 347 346 345 344 342 342 342 342
324 323 328 324 334 337 333 340 337 339 339 337 338 340 344 343 343 346 345 343 343 343 343 344 345 345 344 345 346 349 351 351 349 339 346 348 348 348 348 348 350 348 347 346 346 346 345 344 344
321 325 324 323 325 330 334 334 331 336 337 338 338 338 342 345 344 345 345 345 347 348 348 349 350 350 349 349 350 352 352 353 353 352 352 352 351 349 348 348 348 350 349 348 347 347 347 346 345
321 320 323 324 326 327 328 331 329 334 335 339 340 339 340 344 345 345 344 345 347 348 349 349 351 343 338 343 348 351 353 353 352 352 345 346 348 348 349 350 350 347 347 350 349 348 348 348 348
Wind_Speed
8 9 7 4 4 5 4 5 1 7 4 8 3 2 4 4 1 2 21 28 28 28 28 27 24 22 20 20 21 22 23 22 21 20 19 18 15 13 13 13 11 11 13 16 17 7 8 8 8
9 8 6 4 5 5 2 1 4 2 2 5 3 6 3 3 2 14 32 27 29 30 30 29 25 23 22 22 23 23 24 23 22 20 18 17 15 13 13 13 11 12 13 15 14 8 10 7 7
7 8 5 4 4 4 2 1 3 3 1 7 1 7 3 2 7 34 27 33 30 31 29 28 26 24 23 23 23 24 23 22 20 18 17 15 14 13 13 12 11 12 12 13 10 6 8 12 7
8 3 5 5 7 2 1 3 5 2 2 1 4 5 4 5 26 20 31 33 31 31 29 28 26 25 25 24 23 22 21 21 19 18 16 15 14 13 12 11 11 11 11 11 10 11 10 8 9
6 3 5 5 2 1 2 6 5 2 3 1 3 3 8 10 11 23 31 31 31 32 30 29 27 26 26 24 23 21 19 19 17 16 15 14 14 12 11 10 9 10 9 9 7 9 10 8 7
5 3 5 4 2 2 3 9 2 2 5 5 9 7 5 3 15 25 27 29 28 31 31 30 28 27 25 21 21 20 18 16 15 13 13 13 11 10 8 7 8 8 8 6 6 6 7 7 7
5 4 3 4 4 2 2 2 4 0 1 4 11 4 3 10 19 26 28 25 27 29 30 29 28 26 24 22 20 17 16 13 13 12 10 9 8 7 6 5 5 6 6 6 6 6 7 8 8
4 4 3 2 4 3 5 7 4 6 3 5 8 5 6 21 23 26 28 26 28 28 28 28 27 26 24 22 18 15 13 13 11 10 14 12 12 6 4 5 5 5 5 4 3 4 4 7 9
4 4 3 7 6 4 13 9 6 5 2 4 7 1 11 27 26 29 29 28 29 28 26 26 26 25 23 20 17 15 13 13 12 12 10 8 11 5 5 7 7 7 6 5 6 7 6 6 9
3 4 8 9 9 4 11 9 13 4 6 4 7 4 20 29 28 29 31 32 31 30 28 26 25 24 23 20 18 16 15 13 13 12 10 2 7 8 8 7 10 10 9 8 9 8 8 6 9
1 3 4 6 17 13 13 11 11 5 3 12 18 21 32 32 29 28 31 30 30 30 28 28 25 24 22 20 18 17 16 13 12 11 10 6 8 9 10 10 10 12 12 10 9 7 6 6 8
1 9 4 3 12 16 12 13 6 15 4 9 17 22 34 34 31 30 32 30 30 28 29 27 27 24 22 20 18 15 14 12 10 10 11 10 10 10 11 11 10 13 12 10 9 7 6 5 7
3 5 7 10 17 20 16 12 5 9 11 6 18 26 32 32 30 30 31 29 27 22 30 29 28 25 23 21 18 15 13 11 9 9 9 9 9 9 8 8 9 11 11 9 9 8 6 6 9
4 11 14 10 16 14 7 5 6 4 10 14 22 28 30 31 32 33 33 28 26 21 25 29 29 27 23 21 18 15 12 10 9 8 9 9 10 9 7 6 8 12 11 9 8 6 4 7 9
8 4 4 4 16 7 11 1 2 10 16 21 23 26 29 30 33 35 33 31 23 20 27 29 28 26 23 21 18 16 12 12 9 8 9 9 11 8 7 6 7 10 11 10 8 5 6 7 7
3 3 5 2 9 8 11 7 5 20 23 22 22 24 27 30 31 32 34 33 31 18 27 25 24 25 23 22 20 17 13 13 10 9 11 12 9 10 7 7 8 10 11 9 8 6 6 6 2
7 3 5 9 6 5 3 4 4 22 19 16 21 24 27 28 30 28 32 32 31 24 29 28 24 23 22 20 18 15 13 15 14 11 13 12 9 10 5 6 9 11 11 10 8 6 7 7 2
3 3 5 5 2 0 3 2 5 14 14 15 20 25 26 29 30 26 25 27 27 21 27 25 29 23 21 18 16 16 16 17 14 14 13 11 12 10 6 8 9 11 11 11 8 5 6 4 2
2 3 5 5 1 3 4 3 4 9 11 12 19 24 25 23 23 27 24 20 20 21 24 22 31 20 22 22 20 19 19 16 14 15 14 13 13 12 11 10 10 12 12 14 9 8 6 4 4
2 2 5 9 3 5 3 3 1 7 6 18 24 22 23 20 21 19 21 17 16 16 17 21 21 17 23 23 22 19 17 15 16 15 15 11 12 11 11 9 10 11 13 15 12 10 7 5 2
3 3 2 7 3 6 5 3 3 4 7 14 17 16 14 14 17 16 16 18 17 15 17 21 20 21 20 21 19 19 17 17 15 12 9 9 10 10 9 13 10 13 12 13 13 12 9 6 4
5 3 4 6 3 4 3 4 5 4 8 7 12 13 12 13 13 14 15 17 21 14 19 21 17 18 18 19 18 17 16 15 12 11 9 10 10 7 7 9 11 13 12 13 14 14 11 9 6
7 2 5 4 3 4 0 4 7 2 7 7 7 13 13 13 14 15 17 16 16 15 14 16 15 13 18 19 17 18 18 14 13 11 6 7 7 9 10 9 9 14 15 13 15 15 14 12 8
4 3 6 4 3 2 1 4 6 5 9 3 7 16 14 14 15 16 16 15 16 17 15 15 15 14 14 15 15 15 15 13 12 10 9 6 6 7 9 10 12 13 14 16 16 16 16 15 12
4 6 4 4 4 5 3 3 10 5 7 8 14 20 18 16 17 16 19 20 18 17 16 16 16 15 13 13 12 12 11 11 11 8 7 6 5 3 3 7 9 11 12 13 15 17 16 16 15
4 7 5 6 4 3 2 6 6 5 7 9 17 25 21 19 19 18 18 17 16 16 16 16 16 13 14 12 12 11 9 7 6 9 6 6 6 5 4 4 6 9 11 13 15 16 16 16 16
3 3 4 7 4 2 3 7 7 6 6 6 13 24 25 24 22 20 18 17 16 16 15 14 13 12 13 12 11 8 7 6 8 10 7 8 6 4 5 5 5 6 9 10 12 14 15 15 15
4 4 3 2 4 4 5 5 6 6 11 8 10 20 30 28 25 23 22 21 18 15 13 11 9 8 9 9 9 7 5 3 3 6 10 6 4 5 3 5 6 5 4 7 8 9 9 12 15
1 0 5 4 4 6 2 6 8 9 11 17 15 26 31 32 30 27 26 23 19 16 15 13 11 11 11 11 10 7 4 3 4 7 6 5 5 5 5 4 5 7 7 6 6 7 8 10 10
4 8 7 5 6 3 4 8 4 8 8 17 20 30 34 33 33 29 28 24 22 20 18 17 14 11 10 10 10 8 6 5 6 8 7 5 5 5 6 5 6 7 8 8 9 8 9 11 11
Wind_Direction
0 349 358 21 56 61 41 71 325 306 351 356 170 78 114 66 107 180 149 158 160 155 156 158 159 155 151 148 148 150 150 150 150 150 147 142 141 138 134 133 130 116 111 109 93 85 99 112 107
349 357 6 47 77 64 40 133 227 229 356 349 28 96 58 94 108 143 151 157 161 156 155 158 159 157 152 149 147 145 144 143 146 146 143 143 143 139 137 131 130 121 118 120 113 116 144 111 121
8 1 20 71 83 99 148 160 153 274 325 355 88 63 48 82 137 149 153 156 161 159 157 157 157 155 152 150 148 147 145 143 143 144 145 146 146 141 138 131 130 129 133 130 131 166 187 152 146
359 9 62 64 59 17 133 240 195 73 13 15 114 66 57 294 141 150 155 159 163 160 159 159 159 157 156 155 152 149 150 148 149 150 153 149 147 144 143 140 136 139 145 146 148 146 141 156 162
17 56 56 74 68 237 281 302 117 32 289 100 153 90 101 115 143 155 157 162 166 161 163 162 162 160 159 159 155 154 155 153 153 154 155 155 153 155 152 149 145 147 151 159 161 170 169 173 190
43 37 63 57 29 217 230 230 246 271 328 117 101 97 143 207 169 160 161 165 169 165 166 167 165 163 161 157 159 160 161 161 160 159 161 162 162 156 156 160 151 151 159 170 176 187 201 200 201
97 71 113 123 180 225 222 191 197 129 203 96 128 71 101 162 174 165 166 169 171 171 171 172 170 169 169 166 166 172 170 170 169 164 165 163 163 165 159 182 169 163 164 180 186 200 214 218 214
84 93 67 21 186 260 153 170 246 195 213 150 186 153 174 173 171 170 171 172 175 177 177 180 178 177 177 175 175 181 176 178 180 169 192 192 192 192 169 218 201 188 184 191 225 231 221 221 217
110 70 148 191 170 237 167 190 209 205 221 146 185 225 181 168 173 173 175 177 178 182 184 186 186 186 186 187 195 193 187 190 188 187 189 234 217 244 228 237 224 217 221 245 260 254 241 217 217
100 124 212 182 192 174 174 193 179 182 187 171 153 174 170 171 177 177 181 181 184 186 187 189 192 194 193 198 199 193 192 199 202 204 215 221 207 235 260 264 240 231 243 269 273 266 248 232 214
178 208 163 234 188 159 174 193 184 166 233 210 174 164 171 175 181 183 185 188 188 190 191 193 195 195 197 199 198 196 200 209 215 214 220 244 240 260 267 265 266 235 244 267 273 270 236 228 212
234 257 223 289 185 154 170 183 201 198 231 263 217 200 178 182 184 186 187 190 191 199 197 196 197 197 201 201 205 208 211 216 220 218 238 253 260 272 270 272 266 225 235 257 264 242 214 225 218
193 293 265 247 179 177 174 174 205 215 270 200 183 187 189 190 189 189 192 188 186 204 207 201 201 201 204 205 209 215 217 220 223 228 238 254 255 265 272 267 246 216 237 255 251 235 219 235 242
265 287 275 198 161 167 151 147 183 167 179 173 180 188 195 196 195 195 198 191 201 210 209 209 209 206 206 212 214 223 230 216 221 233 242 245 253 259 269 259 232 221 236 252 250 239 234 241 244
312 331 318 186 156 175 140 245 206 171 180 174 185 195 200 204 204 208 205 195 209 231 219 215 213 213 213 216 220 227 228 235 238 250 245 250 256 252 258 244 232 231 236 249 245 259 274 282 246
0 50 15 21 152 193 160 252 173 171 175 175 183 198 201 210 214 216 216 207 212 223 213 216 213 221 219 221 225 229 224 245 248 245 253 250 265 258 245 239 231 227 232 235 244 272 279 285 289
10 55 10 329 252 158 171 237 180 176 171 170 189 195 206 212 217 221 222 216 224 230 212 201 189 210 222 223 231 229 227 245 254 264 262 263 273 257 243 246 235 235 225 223 245 255 277 328 198
23 357 314 259 297 86 137 346 74 159 177 188 196 204 210 217 222 227 228 233 228 228 214 196 186 205 212 213 223 228 236 248 256 267 274 275 273 258 250 233 236 235 216 215 225 253 278 284 255
110 219 283 290 55 125 82 93 132 157 187 196 210 215 221 225 230 236 242 242 229 226 212 218 183 200 213 214 219 229 241 251 268 269 278 263 271 269 256 227 238 236 228 217 228 245 280 281 292
191 309 300 301 307 99 77 33 318 197 216 215 217 225 227 231 240 231 227 224 218 216 218 200 195 224 219 224 228 238 249 263 272 266 269 272 262 259 249 229 240 237 228 221 235 242 265 283 298
252 213 275 236 7 34 114 357 324 270 259 237 229 236 236 235 233 225 211 205 202 219 208 200 215 220 214 222 228 239 251 261 269 282 281 275 259 245 246 238 245 226 225 222 229 237 251 259 273
305 172 223 274 137 202 86 257 264 245 263 220 214 222 238 233 229 223 203 205 207 217 197 212 214 217 224 218 229 240 255 265 277 283 267 255 250 241 241 237 232 224 229 229 231 231 241 250 255
241 297 290 303 137 125 206 95 270 346 269 243 224 231 233 226 221 206 200 198 199 188 197 208 217 218 220 228 237 246 253 266 272 276 272 260 259 244 240 236 234 234 236 235 232 230 234 242 246
257 14 33 57 74 45 255 128 282 203 229 143 207 222 226 222 219 204 199 195 189 198 206 206 212 216 216 221 230 231 245 259 268 278 281 290 274 250 244 236 237 239 241 236 233 231 233 236 243
92 63 341 351 12 222 316 74 240 246 228 208 197 207 212 212 213 203 197 196 194 201 207 210 210 209 213 221 228 235 244 251 261 276 288 282 277 267 260 232 235 236 235 231 229 231 235 239 239
180 153 163 202 199 247 216 234 255 248 245 212 207 200 199 211 214 201 192 193 191 199 200 201 208 212 215 221 226 229 231 243 272 270 247 274 268 284 260 240 245 240 233 228 228 230 234 235 242
180 184 180 105 7 61 252 292 298 266 248 231 205 197 202 203 211 202 191 185 181 181 184 190 192 198 206 211 214 216 229 259 292 307 329 287 292 274 273 248 234 239 237 230 228 229 233 240 244
177 155 81 20 143 235 285 281 242 229 226 219 220 213 208 207 204 203 189 178 176 172 175 175 181 192 195 200 206 211 238 262 295 305 291 283 286 296 275 253 239 234 232 231 236 233 233 240 241
89 44 54 122 133 170 204 261 220 227 197 209 210 218 212 208 204 198 192 187 181 183 188 187 180 179 187 194 200 211 210 242 251 267 286 312 299 292 287 279 242 236 229 228 235 241 242 246 242
183 210 161 138 241 172 164 273 262 244 198 185 199 209 210 211 204 199 195 195 186 184 186 182 177 163 179 190 198 202 224 228 235 269 282 299 315 309 296 279 260 253 250 242 239 239 241 247 250